Location: Famechon
(49.7599°N, 2.0615°E)
Time: 11:45:21
(UTC+00:00)

Cosmos 2219 Rocket - Visible Passes

Search period start: 28 September 2023 00:00
Search period end: 08 October 2023 00:00
Orbit: 828 x 846 km, 71.0° (Epoch: 27 September)

Date Brightness Start Highest point End Pass type
(mag) Time Alt. Az. Time Alt. Az. Time Alt. Az.
28 Sep 5.1 01:03:20 10° N 01:05:44 13° NNE 01:08:08 10° NE visible
28 Sep 3.5 02:46:07 10° NNW 02:51:23 39° NE 02:56:39 10° ESE visible
28 Sep 2.5 04:30:05 10° NW 04:35:25 44° WSW 04:40:45 10° S visible
28 Sep 3.0 19:24:41 10° SW 19:30:08 52° NW 19:35:38 10° NNE visible
28 Sep 4.9 21:12:13 10° WNW 21:15:27 15° NNW 21:18:42 10° N visible
29 Sep 5.1 00:46:55 10° N 00:49:06 12° NNE 00:51:17 10° NE visible
29 Sep 3.6 02:29:36 10° NNW 02:34:49 37° NE 02:40:02 10° ESE visible
29 Sep 2.4 04:13:31 10° NW 04:18:55 47° WSW 04:24:18 10° S visible
29 Sep 2.9 19:08:05 10° SW 19:13:35 56° NW 19:19:07 10° NNE visible
29 Sep 4.9 20:55:27 10° WNW 20:58:50 16° NNW 21:02:14 10° N visible
30 Sep 5.1 00:30:30 10° N 00:32:27 12° NNE 00:34:26 10° NE visible
30 Sep 3.7 02:13:06 10° NNW 02:18:15 35° NE 02:23:23 10° ESE visible
30 Sep 2.3 03:56:57 10° NW 04:02:24 51° WSW 04:07:51 10° S visible
30 Sep 2.8 18:51:31 10° SW 18:57:02 60° WNW 19:02:36 10° NNE visible
30 Sep 4.9 20:38:41 10° WNW 20:42:13 17° NNW 20:45:46 10° N visible
01 Oct 5.1 00:14:06 10° N 00:15:50 11° NNE 00:17:34 10° NE visible
01 Oct 3.7 01:56:35 10° NNW 02:01:41 33° NE 02:06:45 10° ESE visible
01 Oct 2.2 03:40:24 10° NW 03:45:55 54° WSW 03:51:24 10° S visible
01 Oct 2.7 18:34:57 10° SW 18:40:29 64° WNW 18:46:05 10° NNE visible
01 Oct 4.8 20:21:57 10° WNW 20:25:36 17° NW 20:29:17 10° N visible
01 Oct 5.1 23:57:44 10° N 23:59:11 11° NNE 00:00:39 10° NE visible
02 Oct 3.8 01:40:06 10° NNW 01:45:06 31° NE 01:50:06 10° ESE visible
02 Oct 2.1 03:23:51 10° NW 03:29:24 58° WSW 03:34:56 10° S visible
02 Oct 2.6 18:18:23 10° SW 18:23:56 68° WNW 18:29:34 10° NNE visible
02 Oct 4.7 20:05:12 10° WNW 20:08:59 18° NW 20:12:49 10° N visible
02 Oct 5.1 23:41:24 10° N 23:42:33 11° NNE 23:43:41 10° NNE visible
03 Oct 4.1 01:23:36 10° NNW 01:26:54 26° NNE 01:26:54 26° NNE visible
03 Oct 4.1 03:07:18 10° NW 03:19:06 - SSE 03:08:27 16° NW visible
03 Oct4.805:01:05SW05:01:05SW04:50:00NWvisible
03 Oct 2.5 18:01:49 10° SW 18:07:24 72° WNW 18:13:02 10° NNE visible
03 Oct 4.7 19:48:28 10° W 19:52:23 19° NW 19:56:20 10° N visible
03 Oct 5.1 23:25:11 10° NNE 23:25:54 10° NNE 23:26:37 10° NNE visible
04 Oct 4.5 01:07:05 10° NNW 01:09:03 19° N 01:09:03 19° N visible
04 Oct 4.6 19:31:43 10° W 19:35:46 20° NW 19:39:51 10° N visible
05 Oct 4.7 00:50:35 10° NNW 00:51:51 15° N 00:51:51 15° N visible
05 Oct 4.6 19:15:01 10° W 19:19:10 21° NW 19:23:22 10° N visible
06 Oct 4.8 00:34:05 10° NNW 00:34:56 13° N 00:34:56 13° N visible
06 Oct 4.5 18:58:17 10° W 19:02:34 22° NW 19:06:52 10° N visible
07 Oct 4.9 00:17:36 10° NNW 00:18:11 12° N 00:18:11 12° N visible
07 Oct 4.4 18:41:34 10° W 18:45:58 23° NW 18:50:23 10° NNE visible
